{"data":{"norad_id":68098,"intl_designator":"2026-043A","name":"GLOBAL-34","alt_names":[],"object_type":"PAYLOAD","status":"ACTIVE","operator":null,"country":"US","launch_date":"2026-03-05","launch_site_code":"RLLB","launch_vehicle":null,"mission":null,"orbit_class":"UNKNOWN","rcs_meters":null,"size_class":null,"mass_kg":null,"dimensions":null,"purposes":[],"wikipedia_slug":null,"has_3d_model":false,"image_url":null,"decayed_at":null,"tle_current":{"epoch":"2026-05-24T22:53:31.904736Z","epoch_age_seconds":75692,"freshness":"FRESH","line1":"1 68098U 26043A   26144.95384149  .00009161  00000+0  29691-3 0  9992","line2":"2 68098  42.0225 355.0594 0002621 134.7541 225.3511 15.32103254 12261","mean_motion":15.32103254,"eccentricity":0.0002621,"inclination_deg":42.0225,"raan_deg":355.0594,"arg_perigee_deg":134.7541,"mean_anomaly_deg":225.3511,"bstar":0.00029691,"rev_number":1226,"period_min":93.988443418579,"perigee_km":467.74340403732,"apogee_km":471.33295536652,"semimajor_km":6847.6751797019,"source":"CELESTRAK","updated_at":"2026-05-25T13:38:07.545322Z"}}}